Juliana Airport, Sint Maarten

2:26 PM AST on November 21, 2017 (GMT -0400)
Princess Juliana International

Weather History for TNCM - October, 2013

Change the Weather History Date:

Friday, October 4, 2013

  Actual Average Record
Temperature  
Mean Temperature 84 °F -  
Max Temperature 87 °F 86 °F 91 °F (2001)
Min Temperature 81 °F 76 °F 75 °F (2005)
Cooling Degree Days 19    
Growing Degree Days 34 (Base 50)    
Moisture  
Dew Point 75 °F    
Average Humidity 71    
Maximum Humidity 79    
Minimum Humidity 58    
Precipitation  
Precipitation 0.28 in 0.15 in - ()
Sea Level Pressure  
Sea Level Pressure 29.94 in    
Wind  
Wind Speed 6 mph ()    
Max Wind Speed 13 mph    
Max Gust Speed -    
Visibility 7.2 miles    
Events Rain    
Averages and records for this station are not official NWS values.
T = Trace of Precipitation, MM = Missing Value Source: Averaged Metar Reports

Daily Weather History Graph

Daily Weather History Graph

Search for Another Location

Airport or City:

Trip Planner

Search our weather history database for the weather conditions in past years. The results will help you decide how hot, cold, wet, or windy it might be!

Date:

Astronomy

Oct. 04, 2013 Rise Set
Actual Time 6:03 AM AST 5:58 PM AST
Civil Twilight 5:41 AM AST 6:20 PM AST
Nautical Twilight 5:16 AM AST 6:45 PM AST
Astronomical Twilight 4:51 AM AST 7:10 PM AST
Moon 5:33 AM AST (10/4) 5:42 PM AST (10/4)
Length of Visible Light 12h 38m
Length of Day
11h 54m
Waning Crescent, 0% of the Moon is Illuminated
Oct 4
Waning Crescent
Oct 4
New
Oct 11
First Quarter
Oct 18
Full
Oct 26
Last Quarter

Hourly Weather History & Observations

Time (AST) Temp. Heat Index Dew Point Humidity Pressure Visibility Wind Dir Wind Speed Gust Speed Precip Events Conditions
1:00 AM 82.4 °F 89.5 °F 75.2 °F 79% 29.92 in 6.2 mi East 5.8 mph - N/A   Scattered Clouds
2:00 AM 83 °F - 75 °F 71% 29.93 in 19 mi ESE 6.9 mph - -   Partly Cloudy
2:00 AM 82.4 °F 89.5 °F 75.2 °F 79% 29.92 in 6.2 mi ESE 6.9 mph - N/A   Scattered Clouds
3:00 AM 82.4 °F 89.5 °F 75.2 °F 79% 29.92 in 6.2 mi ESE 5.8 mph - N/A   Scattered Clouds
4:00 AM 82.4 °F 89.5 °F 75.2 °F 79% 29.92 in 6.2 mi ESE 6.9 mph - N/A   Scattered Clouds
5:00 AM 82 °F - 75 °F 75% 29.94 in 31 mi SE 4.6 mph - -   Partly Cloudy
5:00 AM 82.4 °F 89.5 °F 75.2 °F 79% 29.92 in 6.2 mi SE 4.6 mph - N/A   Scattered Clouds
6:00 AM 82.4 °F 89.5 °F 75.2 °F 79% 29.92 in 6.2 mi ESE 4.6 mph - N/A   Scattered Clouds
7:00 AM 82.4 °F 89.5 °F 75.2 °F 79% 29.95 in 6.2 mi Variable 2.3 mph - N/A   Partly Cloudy
8:00 AM 85 °F - 74 °F 62% 29.98 in 37 mi SE 6.9 mph - -   Scattered Clouds
8:00 AM 84.2 °F 90.9 °F 73.4 °F 70% 29.98 in 6.2 mi SE 6.9 mph - N/A   Partly Cloudy
9:00 AM 86.0 °F 93.4 °F 73.4 °F 66% 29.98 in 6.2 mi SE 9.2 mph - N/A   Partly Cloudy
10:00 AM 86.0 °F 93.4 °F 73.4 °F 66% 29.98 in 6.2 mi SE 9.2 mph - N/A   Scattered Clouds
11:00 AM 87 °F - 74 °F 58% 29.99 in 37 mi SE 10.4 mph - -   Partly Cloudy
11:00 AM 86.0 °F 93.4 °F 73.4 °F 66% 29.98 in 6.2 mi SE 10.4 mph - N/A   Scattered Clouds
12:00 PM 87.8 °F 95.6 °F 73.4 °F 62% 29.95 in 6.2 mi SE 9.2 mph - N/A   Partly Cloudy
1:00 PM 86.0 °F 95.1 °F 75.2 °F 70% 29.92 in 6.2 mi SE 10.4 mph - N/A   Partly Cloudy
2:00 PM 87 °F - 75 °F 60% 29.91 in 31 mi SSE 12.7 mph - -   Scattered Clouds
2:00 PM 86.0 °F 95.1 °F 75.2 °F 70% 29.89 in 6.2 mi SE 10.4 mph - N/A   Partly Cloudy
3:00 PM 86.0 °F 95.1 °F 75.2 °F 70% 29.89 in 6.2 mi SE 9.2 mph - N/A   Partly Cloudy
4:00 PM 86.0 °F 95.1 °F 75.2 °F 70% 29.89 in 6.2 mi SE 8.1 mph - N/A Rain Light Rain Showers
5:00 PM 85 °F - 74 °F 64% 29.91 in 31 mi SE 6.9 mph - -   Scattered Clouds
5:00 PM 86.0 °F 95.1 °F 75.2 °F 70% 29.89 in 6.2 mi ESE 6.9 mph - N/A   Partly Cloudy
6:00 PM 84.2 °F 90.9 °F 73.4 °F 70% 29.92 in 6.2 mi East 4.6 mph - N/A   Partly Cloudy
7:00 PM 84.2 °F 92.3 °F 75.2 °F 74% 29.92 in 6.2 mi East 5.8 mph - N/A   Partly Cloudy
8:00 PM 84 °F - 75 °F 67% 29.96 in 28 mi 3.5 mph - -   Partly Cloudy
8:00 PM 84.2 °F 92.3 °F 75.2 °F 74% 29.95 in 6.2 mi East 4.6 mph - N/A   Partly Cloudy
9:00 PM 84.2 °F 92.3 °F 75.2 °F 74% 29.95 in 6.2 mi ESE 4.6 mph - N/A   Partly Cloudy
10:00 PM 84.2 °F 92.3 °F 75.2 °F 74% 29.98 in 6.2 mi SE 6.9 mph - N/A   Partly Cloudy
11:00 PM 83 °F - 76 °F 73% 29.98 in 19 mi ESE 6.9 mph - -   Scattered Clouds
11:00 PM 84.2 °F 92.3 °F 75.2 °F 74% 29.98 in 6.2 mi ESE 6.9 mph - N/A   Partly Cloudy